This is the latest recevied weather packets stored in our database for station/object CA4LJZ-10. If no packets are shown the sender has not sent any weather packets the latest 10 day(s).
| Time | Temp. | Humidity | Pressure | Rain* | Wind** | Luminosity | Snow |
|---|---|---|---|---|---|---|---|
| 1777856458 | 20° C | 33% | 955.1 hPa | - | - | - | - |
| 1777855557 | 20° C | 30% | 955.1 hPa | - | - | - | - |
| 1777854656 | 20° C | 30% | 955 hPa | - | - | - | - |
| 1777853755 | 20.56° C | 31% | 955 hPa | - | - | - | - |
| 1777852854 | 20.56° C | 32% | 955.2 hPa | - | - | - | - |
| 1777851953 | 20.56° C | 29% | 955 hPa | - | - | - | - |
| 1777851052 | 21.11° C | 29% | 954.8 hPa | - | - | - | - |
| 1777850151 | 22.22° C | 31% | 954.7 hPa | - | - | - | - |
| 1777849250 | 21.11° C | 24% | 954.5 hPa | - | - | - | - |
| 1777848349 | 21.67° C | 29% | 954.6 hPa | - | - | - | - |
| 1777847448 | 22.22° C | 22% | 954.7 hPa | - | - | - | - |
| 1777846547 | 23.33° C | 22% | 954.6 hPa | - | - | - | - |
| 1777845646 | 23.89° C | 27% | 954.7 hPa | - | - | - | - |
| 1777844745 | 24.44° C | 27% | 954.3 hPa | - | - | - | - |
| 1777843845 | 25° C | 26% | 954.1 hPa | - | - | - | - |
| 1777842943 | 26.11° C | 25% | 954.1 hPa | - | - | - | - |
| 1777842043 | 26.67° C | 24% | 954 hPa | - | - | - | - |
| 1777841142 | 26.67° C | 24% | 954.1 hPa | - | - | - | - |
| 1777840241 | 27.78° C | 23% | 954.1 hPa | - | - | - | - |
| 1777839373 | 27.22° C | 25% | 954.1 hPa | - | - | - | - |
| 1777838472 | 27.78° C | 24% | 954 hPa | - | - | - | - |
| 1777837571 | 27.78° C | 23% | 953.9 hPa | - | - | - | - |
| 1777836670 | 28.33° C | 21% | 953.9 hPa | - | - | - | - |
| 1777835769 | 29.44° C | 19% | 953.7 hPa | - | - | - | - |
| 1777834868 | 30° C | 21% | 953.6 hPa | - | - | - | - |
* Rain since midnight (hover to see other rain measurements)
** Current wind speed in m/s (hover to see current wind gust speed)